Location: Bratislava
(0.0000°N, 17.1167°E)
Time: 03:50:13
(UTC+01:00)

Cosmos 1825 - Pass Details

Date: 24 January 2021
Orbit: 501 x 507 km, 82.5° (Epoch: 06 March)

Event Time Altitude Azimuth Distance (km) Brightness Sun altitude
Rises 19:27:56 0° 178° (S) 2,596 6.0 -19.8°
Reaches altitude 10° 19:30:04 10° 175° (S) 1,711 5.0 -20.3°
Enters shadow 19:33:10 52° 140° (SE) 629 2.4 -21.1°
